Terminal Aerodrome Forecast
Issued by NWS Denver/Boulder, CO

Home | Current Version | Previous Version | Text Only | Print | Product List | Glossary On
Versions: 1 2 3 4 5 6 7 8 9 10 11 12 13 14 15 16 17 18 19 20 21 22 23 24 25 26 27 28 29 30 31 32 33 34 35 36 37 38 39 40 41 42 43 44 45 46 47 48 49 50
000
FTUS45 KBOU 310908 AAA
TAFDEN
TAF AMD
KDEN 310908Z 3109/0112 21009KT P6SM FEW130
     FM311400 28009KT P6SM SCT090 BKN150
     FM311900 01012KT P6SM SCT090 BKN150 PROB30 3120/3124 VRB18G30KT
      -TSRA BKN090CB
     FM010100 33009KT P6SM SCT150
     FM010600 VRB05KT P6SM BKN200=

USA.gov is the U.S. government's official web portal to all federal, state and local government web resources and services.